Almeria, Spain

6:11 PM CEST en Octubre 22, 2018 (GMT +0200)
Almeria

Tiempo Historia de LEAM - Enero, 2014

Change the Weather History Date:

Miércoles, Enero 1, 2014

  Actual Average Record
Temperature  
Temperatura media 56 ° F -  
Temperatura máxima 64 ° F 58 ° F 66 ° F (2006)
Temperatura mínima 48 ° F 46 ° F 41 ° F (2005)
Degree Days  
Grados día de calefacción 9    
Growing Degree Days 6 (Base 50)    
Moisture  
Punto de rocío 48 ° F    
Average Humidity 73    
Maximum Humidity 94    
Minimum Humidity 44    
Precipitación  
Precipitación 0.00 pul 0.04 pul - ()
Presión al nivel del mar  
Presión al nivel del mar 30.11 pul    
Viento  
Velocidad del viento 2 mph ()    
Velocidad máxima del viento 7 mph    
Max Gust Speed -    
Visibilidad 7.4 Millas    
Eventos      
Averages and records for this station are not official NWS values.
T = Trace of Precipitation, MM = Missing Value Source: Averaged Metar Reports

Daily Weather History Graph

Daily Weather History Graph

Search for Another Location

Airport or City:

Astronomía

Jan. 01, 2014 Salida Puesta
Hora real 8:22 AM CET 6:03 PM CET
Crepúsculo civil 7:53 AM CET 6:32 PM CET
Crepúsculo náutico 7:21 AM CET 7:05 PM CET
Crepúsculo astronómico 6:49 AM CET 7:36 PM CET
Luna 8:00 AM CET (1/1) 6:30 PM CET (1/1)
Horas de luz 10h 39m
Horas de luz
9h 41m
Creciente menguante, 0% of the Moon is Illuminated
Ene 1
Creciente menguante
Ene 1
Nueva
Ene 8
Cuarto creciente
Ene 16
Luna llena
Ene 24
Cuarto menguante

Hourly Weather History & Observations

Hora (CET) Temp. Punto de rocío Humedad Presión Visibilidad Wind Dir Velocidad del viento Velocidad de ráfagas Precip Eventos Condiciones
12:00 AM 52 ° F 46 ° F 74% 30.18 pul - NNO 3.5 mph - -  
1:00 AM 51 ° F 46 ° F 75% 30.17 pul - NNO 5.8 mph - -  
2:00 AM 49 ° F 44 ° F 76% 30.16 pul - Sin viento Sin viento - -  
3:00 AM 49 ° F 44 ° F 77% 30.15 pul - NE 4.6 mph - -  
4:00 AM 49 ° F 44 ° F 75% 30.14 pul - Sin viento Sin viento - -  
5:00 AM 51 ° F 41 ° F 58% 30.13 pul - NNO 6.9 mph - -  
5:30 AM 50.0 ° F 42.8 ° F 76% 30.12 pul 6.2 mi Variable 1.2 mph - N/A   Parcialmente nublado
6:00 AM 50 ° F 42 ° F 67% 30.13 pul - Sin viento Sin viento - -  
6:00 AM 50.0 ° F 42.8 ° F 76% 30.09 pul 6.2 mi Variable 1.2 mph - N/A   Parcialmente nublado
6:30 AM 50.0 ° F 41.0 ° F 71% 30.12 pul 6.2 mi Sin viento Sin viento - N/A   Parcialmente nublado
7:00 AM 50 ° F 41 ° F 63% 30.12 pul 19 mi Norte 3.5 mph - -   Nubes dispersas
7:00 AM 50.0 ° F 41.0 ° F 71% 30.12 pul 6.2 mi NNO 3.5 mph - N/A   Parcialmente nublado
7:30 AM 50.0 ° F 41.0 ° F 71% 30.12 pul 6.2 mi Variable 2.3 mph - N/A   Parcialmente nublado
8:00 AM 49 ° F 40 ° F 63% 30.14 pul - NO 4.6 mph - -  
8:00 AM 50.0 ° F 41.0 ° F 71% 30.12 pul 6.2 mi Variable 2.3 mph - N/A   Parcialmente nublado
8:30 AM 50.0 ° F 39.2 ° F 66% 30.12 pul 6.2 mi Variable 1.2 mph - N/A   Parcialmente nublado
9:00 AM 49 ° F 42 ° F 68% 30.15 pul - Sin viento Sin viento - -  
9:00 AM 48.2 ° F 41.0 ° F 76% 30.12 pul 6.2 mi Sin viento Sin viento - N/A   Parcialmente nublado
9:30 AM 50.0 ° F 42.8 ° F 76% 30.15 pul 6.2 mi Sin viento Sin viento - N/A   Parcialmente nublado
10:00 AM 53 ° F 44 ° F 61% 30.17 pul - ONO 1.2 mph - -  
10:00 AM 53.6 ° F 42.8 ° F 67% 30.15 pul 6.2 mi Variable 1.2 mph - N/A   Parcialmente nublado
10:30 AM 57.2 ° F 42.8 ° F 59% 30.15 pul 6.2 mi Variable 1.2 mph - N/A   Parcialmente nublado
11:00 AM 61 ° F 45 ° F 44% 30.18 pul - ENE 2.3 mph - -  
11:00 AM 59.0 ° F 42.8 ° F 55% 30.15 pul 6.2 mi Variable 1.2 mph - N/A   Parcialmente nublado
11:30 AM 62.6 ° F 46.4 ° F 55% 30.15 pul 6.2 mi Variable 1.2 mph - N/A   Parcialmente nublado
12:00 PM 63 ° F 50 ° F 53% 30.16 pul - SSE 3.5 mph - -  
12:00 PM 60.8 ° F 50.0 ° F 68% 30.15 pul 6.2 mi Variable 2.3 mph - N/A   Parcialmente nublado
12:30 PM 60.8 ° F 50.0 ° F 68% 30.12 pul 6.2 mi Variable 2.3 mph - N/A   Parcialmente nublado
1:00 PM 62 ° F 50 ° F 56% 30.14 pul 19 mi Sur 4.6 mph - -   Nubes dispersas
1:00 PM 60.8 ° F 50.0 ° F 68% 30.12 pul 6.2 mi Sur 3.5 mph - N/A   Parcialmente nublado
1:30 PM 60.8 ° F 50.0 ° F 68% 30.12 pul 6.2 mi Sur 4.6 mph - N/A   Parcialmente nublado
2:00 PM 62 ° F 53 ° F 63% 30.11 pul - Sur 5.8 mph - -  
2:00 PM 60.8 ° F 51.8 ° F 72% 30.09 pul 6.2 mi Sur 4.6 mph - N/A   Parcialmente nublado
2:30 PM 60.8 ° F 53.6 ° F 77% 30.09 pul 6.2 mi Sur 3.5 mph - N/A   Parcialmente nublado
3:00 PM 62 ° F 54 ° F 66% 30.09 pul - Sur 5.8 mph - -  
3:00 PM 60.8 ° F 53.6 ° F 77% 30.06 pul 6.2 mi Sur 4.6 mph - N/A   Parcialmente nublado
3:30 PM 62.6 ° F 53.6 ° F 72% 30.06 pul 6.2 mi Variable 2.3 mph - N/A   Parcialmente nublado
4:00 PM 62 ° F 54 ° F 69% 30.08 pul 19 mi SE 2.3 mph - -   Nubes dispersas
4:00 PM 60.8 ° F 53.6 ° F 77% 30.06 pul 6.2 mi Variable 2.3 mph - N/A   Parcialmente nublado
4:30 PM 60.8 ° F 53.6 ° F 77% 30.06 pul 6.2 mi Variable 1.2 mph - N/A   Parcialmente nublado
5:00 PM 60 ° F 53 ° F 72% 30.09 pul - Sur 2.3 mph - -  
5:00 PM 59.0 ° F 53.6 ° F 82% 30.06 pul 6.2 mi Variable 1.2 mph - N/A   Parcialmente nublado
5:30 PM 59.0 ° F 51.8 ° F 77% 30.09 pul 6.2 mi Variable 1.2 mph - N/A   Parcialmente nublado
6:00 PM 59 ° F 53 ° F 73% 30.11 pul - ENE 1.2 mph - -  
6:00 PM 59.0 ° F 51.8 ° F 77% 30.09 pul 6.2 mi Sin viento Sin viento - N/A   Parcialmente nublado
6:30 PM 57.2 ° F 51.8 ° F 82% 30.09 pul 6.2 mi Sin viento Sin viento - N/A   Parcialmente nublado
7:00 PM 58 ° F 52 ° F 73% 30.10 pul 19 mi Sin viento Sin viento - -   Nubes dispersas
7:00 PM 57.2 ° F 51.8 ° F 82% 30.09 pul 6.2 mi Sin viento Sin viento - N/A   Parcialmente nublado
7:30 PM 57.2 ° F 51.8 ° F 82% 30.09 pul 6.2 mi Sin viento Sin viento - N/A   Parcialmente nublado
8:00 PM 58 ° F 53 ° F 78% 30.11 pul - SO 1.2 mph - -  
8:00 PM 57.2 ° F 53.6 ° F 88% 30.09 pul 6.2 mi Variable 1.2 mph - N/A   Parcialmente nublado
8:30 PM 57.2 ° F 51.8 ° F 82% 30.09 pul 6.2 mi Sin viento Sin viento - N/A   Parcialmente nublado
9:00 PM 57 ° F 53 ° F 80% 30.10 pul - ENE 2.3 mph - -  
9:00 PM 57.2 ° F 51.8 ° F 82% 30.09 pul 6.2 mi Variable 1.2 mph - N/A   Parcialmente nublado
9:30 PM 57.2 ° F 53.6 ° F 88% 30.09 pul 6.2 mi Variable 2.3 mph - N/A   Parcialmente nublado
10:00 PM 57 ° F 53 ° F 80% 30.10 pul - Norte 5.8 mph - -  
10:00 PM 55.4 ° F 51.8 ° F 88% 30.09 pul 6.2 mi Norte 3.5 mph - N/A   Parcialmente nublado
10:30 PM 57.2 ° F 53.6 ° F 88% 30.09 pul 6.2 mi Variable 2.3 mph - N/A   Parcialmente nublado
11:00 PM 57 ° F 53 ° F 81% 30.09 pul - Norte 2.3 mph - -  
11:00 PM 57.2 ° F 51.8 ° F 82% 30.06 pul 6.2 mi Norte 3.5 mph - N/A   Parcialmente nublado
11:30 PM 55.4 ° F 53.6 ° F 94% 30.09 pul 6.2 mi NO 3.5 mph - N/A   Parcialmente nublado